EW6764 Weather Reports


Display with metric or nautical units.
time (UTC)temp
F
wind
direction
speed
MPH
gust
MPH
rain 1hr
in
rain 24hr
in
rain mn
in
humidity
%
barometer
mb
20260505181021 68 20 0.0 8.0 0.00 0.00 0.00 44 1008.1
20260505180515 68 306 2.0 8.0 0.00 0.00 0.00 42 1008.1
20260505180030 68 326 1.0 8.0 0.00 0.00 0.00 43 1008.0
20260505175515 66 22 3.0 8.0 0.00 0.00 0.00 44 1008.0
20260505175023 66 290 2.0 7.0 0.00 0.00 0.00 45 1008.0
20260505174522 66 259 3.0 7.0 0.00 0.00 0.00 44 1008.1
20260505174016 67 329 3.0 6.0 0.00 0.00 0.00 42 1008.1
20260505173515 68 42 2.0 6.0 0.00 0.00 0.00 42 1008.1
20260505173012 67 360 1.0 4.0 0.00 0.00 0.00 43 1008.0
20260505172511 67 5 0.0 4.0 0.00 0.00 0.00 43 1008.0
20260505172020 67 5 1.0 4.0 0.00 0.00 0.00 43 1008.0
20260505171523 66 55 0.0 5.0 0.00 0.00 0.00 44 1008.1
20260505171011 66 63 2.0 9.0 0.00 0.00 0.00 44 1008.1
20260505170516 66 25 1.0 9.0 0.00 0.00 0.00 45 1008.1
20260505170014 66 28 4.0 8.0 0.00 0.00 0.00 44 1008.1
20260505165512 66 351 0.0 8.0 0.00 0.00 0.00 45 1008.0
20260505165009 65 25 2.0 8.0 0.00 0.00 0.00 45 1008.1
20260505164516 66 9 2.0 6.0 0.00 0.00 0.00 44 1008.0
20260505164007 66 32 2.0 8.0 0.00 0.00 0.00 45 1008.0
20260505163508 66 360 2.0 8.0 0.00 0.00 0.00 44 1008.0
20260505163009 65 38 1.0 5.0 0.00 0.00 0.00 46 1008.0
20260505162506 64 317 0.0 3.0 0.00 0.00 0.00 47 1007.9
20260505162006 64 317 1.0 4.0 0.00 0.00 0.00 48 1007.9
20260505161506 64 317 1.0 4.0 0.00 0.00 0.00 47 1007.9
20260505161006 64 317 0.0 5.0 0.00 0.00 0.00 48 1007.9
20260505160506 65 317 1.0 5.0 0.00 0.00 0.00 46 1007.9
20260505153002 63 92 2.0 4.0 0.00 0.00 0.00 46 1007.9
20260505152601 63 92 1.0 3.0 0.00 0.00 0.00 45 1007.9
20260505152101 63 92 1.0 4.0 0.00 0.00 0.00 45 1007.8
20260505151558 63 92 1.0 4.0 0.00 0.00 0.00 46 1007.8
20260505151058 62 92 1.0 4.0 0.00 0.00 0.00 46 1007.8
20260505150558 62 100 1.0 4.0 0.00 0.00 0.00 46 1007.8
20260505150114 62 108 2.0 4.0 0.00 0.00 0.00 47 1007.8
20260505140548 60 213 0.0 0.0 0.00 0.00 0.00 43 1007.2
20260505124542 57 215 0.0 0.0 0.00 0.00 0.00 48 1006.6
20260505124043 56 215 0.0 0.0 0.00 0.00 0.00 48 1006.7
20260505123542 56 215 0.0 0.0 0.00 0.00 0.00 48 1006.6
20260505123104 56 215 0.0 0.0 0.00 0.00 0.00 48 1006.6
20260505122540 56 215 0.0 0.0 0.00 0.00 0.00 48 1006.5
20260505122040 56 215 0.0 0.0 0.00 0.00 0.00 48 1006.5
20260505121541 56 215 0.0 0.0 0.00 0.00 0.00 48 1006.5
20260505121042 56 215 0.0 0.0 0.00 0.00 0.00 48 1006.4
20260505120539 57 215 0.0 0.0 0.00 0.00 0.00 48 1006.4
20260505120047 57 215 0.0 0.0 0.00 0.00 0.00 48 1006.3
20260505115536 57 215 0.0 0.0 0.00 0.00 0.00 47 1006.3
20260505115035 57 215 0.0 0.0 0.00 0.00 0.00 47 1006.2
20260505114546 58 215 0.0 0.0 0.00 0.00 0.00 47 1006.1
20260505114034 58 215 0.0 0.0 0.00 0.00 0.00 47 1006.1
20260505113533 58 215 0.0 0.0 0.00 0.00 0.00 47 1006.1
20260505113032 58 215 0.0 0.0 0.00 0.00 0.00 47 1006.0
20260505112532 58 215 0.0 0.0 0.00 0.00 0.00 46 1006.1
20260505112031 58 215 0.0 0.0 0.00 0.00 0.00 46 1006.0
20260505111531 57 215 0.0 0.0 0.00 0.00 0.00 46 1005.9
20260505111031 57 215 0.0 0.0 0.00 0.00 0.00 46 1005.9
20260505110531 57 215 0.0 0.0 0.00 0.00 0.00 46 1005.9
20260505102025 58 215 0.0 2.0 0.00 0.00 0.00 45 1005.8
20260505101525 58 215 0.0 2.0 0.00 0.00 0.00 44 1005.7
20260505101025 58 215 0.0 0.0 0.00 0.00 0.00 44 1005.8
20260505100524 59 215 0.0 0.0 0.00 0.00 0.00 43 1005.8
20260505100030 59 215 0.0 0.0 0.00 0.00 0.00 44 1005.7
20260505095522 59 215 0.0 0.0 0.00 0.00 0.00 43 1005.7
20260505095022 59 215 0.0 0.0 0.00 0.00 0.00 43 1005.7
20260505094522 59 215 0.0 0.0 0.00 0.00 0.00 43 1005.7
20260505094021 59 215 0.0 0.0 0.00 0.00 0.00 43 1005.7
20260505093521 59 215 0.0 0.0 0.00 0.00 0.00 43 1005.7
20260505093021 59 215 0.0 1.0 0.00 0.00 0.00 42 1005.7
20260505092521 59 215 0.0 3.0 0.00 0.00 0.00 43 1005.5
20260505092021 59 215 0.0 2.0 0.00 0.00 0.00 42 1005.5
20260505091530 59 215 0.0 2.0 0.00 0.00 0.00 43 1005.6
20260505091020 59 215 0.0 1.0 0.00 0.00 0.00 43 1005.5
20260505090520 59 215 0.0 5.0 0.00 0.00 0.00 43 1005.5
20260505090036 59 215 1.0 5.0 0.00 0.00 0.00 42 1005.5
20260505085519 59 215 1.0 5.0 0.00 0.00 0.00 43 1005.4
20260505085019 59 215 0.0 3.0 0.00 0.00 0.00 43 1005.4
20260505084522 59 215 0.0 3.0 0.00 0.00 0.00 42 1005.5
20260505084017 59 215 0.0 2.0 0.00 0.00 0.00 42 1005.6
20260505083517 59 215 0.0 2.0 0.00 0.00 0.00 41 1005.7
20260505083015 59 215 0.0 1.0 0.00 0.00 0.00 41 1005.6
20260505082514 60 215 0.0 1.0 0.00 0.00 0.00 40 1005.6
20260505082014 60 215 0.0 0.0 0.00 0.00 0.00 40 1005.6
20260505081516 60 215 0.0 0.0 0.00 0.00 0.00 39 1005.7
20260505081014 60 215 0.0 0.0 0.00 0.00 0.00 39 1005.6
20260505080512 61 215 0.0 1.0 0.00 0.00 0.00 39 1005.7
20260505080016 60 215 0.0 3.0 0.00 0.00 0.00 39 1005.7
20260505075512 60 215 0.0 3.0 0.00 0.00 0.00 40 1005.7
20260505075011 60 215 0.0 0.0 0.00 0.00 0.00 39 1005.7
20260505074510 60 215 0.0 0.0 0.00 0.00 0.00 39 1005.6
20260505074011 60 215 0.0 3.0 0.00 0.00 0.00 39 1005.6
20260505073509 60 215 0.0 5.0 0.00 0.00 0.00 39 1005.6
20260505073014 60 215 2.0 6.0 0.00 0.00 0.00 39 1005.5
20260505072507 60 215 3.0 6.0 0.00 0.00 0.00 39 1005.6
20260505072008 60 322 0.0 0.0 0.00 0.00 0.00 40 1005.5
20260505071508 60 323 0.0 0.0 0.00 0.00 0.00 39 1005.5
20260505071006 60 323 0.0 0.0 0.00 0.00 0.00 39 1005.4
20260505070505 60 323 0.0 0.0 0.00 0.00 0.00 39 1005.4
20260505070004 60 323 0.0 0.0 0.00 0.00 0.00 39 1005.4
20260505065504 60 323 0.0 0.0 0.00 0.00 0.00 39 1005.3
20260505065004 60 323 0.0 0.0 0.00 0.00 0.00 39 1005.2
20260505064503 60 323 0.0 0.0 0.00 0.00 0.00 38 1005.2
20260505064006 61 324 0.0 0.0 0.00 0.00 0.00 38 1005.1
20260505063506 61 324 0.0 0.0 0.00 0.00 0.00 38 1005.1
20260505063005 62 324 0.0 0.0 0.00 0.00 0.00 37 1005.0
20260505062503 62 324 0.0 0.0 0.00 0.00 0.00 37 1005.0
20260505062002 62 324 0.0 0.0 0.00 0.00 0.00 37 1005.0
20260505061507 63 324 0.0 2.0 0.00 0.00 0.00 36 1005.0
20260505061003 63 324 0.0 3.0 0.00 0.00 0.00 36 1004.9
20260505060508 63 324 1.0 3.0 0.00 0.00 0.00 36 1004.9
20260505060002 63 324 0.0 6.0 0.00 0.00 0.00 36 1004.8
20260505055502 63 325 0.0 6.0 0.00 0.00 0.00 37 1004.8
20260505055003 63 287 1.0 5.0 0.00 0.00 0.00 37 1004.8
20260505054502 63 305 0.0 5.0 0.00 0.00 0.00 37 1004.8
20260505054001 63 303 1.0 7.0 0.00 0.00 0.00 37 1004.7
20260505053501 63 302 1.0 7.0 0.00 0.00 0.00 37 1004.7
20260505053001 63 314 2.0 10.0 0.00 0.00 0.00 38 1004.7
20260505052502 63 306 3.0 10.0 0.00 0.00 0.00 39 1004.7
20260505052001 63 285 1.0 5.0 0.00 0.00 0.00 41 1004.7
20260505051500 63 284 0.0 3.0 0.00 0.00 0.00 42 1004.7
20260505051002 63 286 0.0 1.0 0.00 0.00 0.00 42 1004.7
20260505050600 64 286 0.0 2.0 0.00 0.00 0.00 43 1004.7
20260505050128 64 286 0.0 4.0 0.00 0.00 0.00 43 1004.6
20260505041610 66 290 1.0 7.0 0.00 0.00 0.00 35 1004.1
20260505041058 66 301 1.0 5.0 0.00 0.00 0.00 33 1004.0
20260505040601 66 50 0.0 2.0 0.00 0.00 0.00 29 1004.1
20260505035602 66 51 0.0 1.0 0.00 0.00 0.00 29 1003.9
20260505035057 66 51 0.0 2.0 0.00 0.00 0.00 29 1003.8
20260505034557 66 51 0.0 2.0 0.00 0.00 0.00 28 1003.7
20260505034058 67 51 0.0 3.0 0.00 0.00 0.00 28 1003.7
20260505033558 67 51 1.0 3.0 0.00 0.00 0.00 27 1003.7
20260505033057 67 51 0.0 2.0 0.00 0.00 0.00 27 1003.6
20260505032558 67 51 0.0 4.0 0.00 0.00 0.00 27 1003.5
20260505032100 68 51 0.0 4.0 0.00 0.00 0.00 27 1003.4
20260505031600 68 51 0.0 4.0 0.00 0.00 0.00 27 1003.3
20260505031056 69 51 1.0 5.0 0.00 0.00 0.00 26 1003.3
20260505030556 69 52 0.0 8.0 0.00 0.00 0.00 26 1003.3
20260505030056 69 360 3.0 8.0 0.00 0.00 0.00 26 1003.2
20260505025555 70 21 3.0 8.0 0.00 0.00 0.00 25 1003.2
20260505025056 70 37 4.0 12.0 0.00 0.00 0.00 25 1003.1
20260505024555 71 355 4.0 12.0 0.00 0.00 0.00 26 1003.0
20260505024054 71 28 4.0 12.0 0.00 0.00 0.00 26 1003.0
20260505023554 71 48 5.0 12.0 0.00 0.00 0.00 25 1002.9
20260505023055 71 26 3.0 12.0 0.00 0.00 0.00 25 1002.9
20260505022554 71 28 3.0 16.0 0.00 0.00 0.00 25 1002.9
20260505022054 72 29 5.0 16.0 0.00 0.00 0.00 26 1002.9
20260505021555 72 50 4.0 15.0 0.00 0.00 0.00 25 1002.9
20260505021053 72 19 8.0 15.0 0.00 0.00 0.00 25 1002.8
20260505020553 72 38 4.0 12.0 0.00 0.00 0.00 25 1002.8
20260505020054 73 20 4.0 13.0 0.00 0.00 0.00 25 1002.8
20260505015554 72 355 4.0 13.0 0.00 0.00 0.00 26 1002.8
20260505015053 72 32 5.0 14.0 0.00 0.00 0.00 25 1002.8
20260505014605 72 44 7.0 14.0 0.00 0.00 0.00 25 1002.8
20260505014053 73 27 3.0 9.0 0.00 0.00 0.00 26 1002.9
20260505013551 73 13 3.0 15.0 0.00 0.00 0.00 26 1002.9
20260505013052 73 40 7.0 15.0 0.00 0.00 0.00 26 1002.9
20260505012551 73 38 6.0 14.0 0.00 0.00 0.00 25 1002.9
20260505012051 73 51 2.0 13.0 0.00 0.00 0.00 26 1003.0
20260505011553 73 355 4.0 13.0 0.00 0.00 0.00 26 1002.9
20260505011051 73 23 3.0 11.0 0.00 0.00 0.00 27 1002.9
20260505010550 73 56 3.0 12.0 0.00 0.00 0.00 27 1003.0
20260505010050 73 22 3.0 12.0 0.00 0.00 0.00 28 1003.0
20260505005550 73 15 3.0 9.0 0.00 0.00 0.00 28 1003.1
20260505005050 73 5 3.0 9.0 0.00 0.00 0.00 28 1003.2
20260505004550 73 23 0.0 6.0 0.00 0.00 0.00 28 1003.2
20260505004049 73 26 2.0 6.0 0.00 0.00 0.00 28 1003.2
20260505003549 73 344 1.0 6.0 0.00 0.00 0.00 28 1003.2
20260505003049 74 355 2.0 5.0 0.00 0.00 0.00 28 1003.1
20260505002551 74 338 2.0 5.0 0.00 0.00 0.00 28 1003.1
20260505002049 74 327 1.0 5.0 0.00 0.00 0.00 28 1003.2
20260505001602 74 337 0.0 10.0 0.00 0.00 0.00 28 1003.0
20260505001048 75 26 2.0 10.0 0.00 0.00 0.00 28 1003.2
20260505000548 75 9 3.0 11.0 0.00 0.00 0.00 27 1003.2
20260505000105 77 42 5.0 13.0 0.00 0.00 0.00 26 1003.1
20260504235548 78 22 5.0 13.0 0.00 0.00 0.00 24 1003.0
20260504235047 79 323 4.0 11.0 0.00 0.00 0.00 24 1003.0
20260504234605 79 319 2.0 9.0 0.00 0.00 0.00 23 1003.1
20260504234046 79 74 2.0 11.0 0.00 0.00 0.00 24 1003.0
20260504233549 80 360 3.0 11.0 0.00 0.00 0.00 23 1003.0
20260504233050 79 284 4.0 12.0 0.00 0.00 0.00 23 1003.0
20260504232544 80 340 3.0 13.0 0.00 0.00 0.00 23 1003.2
20260504232042 79 328 7.0 13.0 0.00 0.00 0.00 23 1003.2
20260504231541 78 315 4.0 12.0 0.00 0.00 0.00 24 1003.3
20260504231041 77 31 1.0 8.0 0.00 0.00 0.00 25 1003.3
20260504230540 75 329 2.0 11.0 0.00 0.00 0.00 26 1003.5
20260504230041 75 13 2.0 12.0 0.00 0.00 0.00 27 1003.6
20260504225541 74 36 5.0 13.0 0.00 0.00 0.00 27 1003.5
20260504225043 75 42 5.0 13.0 0.00 0.00 0.00 26 1003.5
20260504224548 76 355 3.0 17.0 0.00 0.00 0.00 26 1003.5
20260504224039 75 15 4.0 17.0 0.00 0.00 0.00 26 1003.6
20260504223541 77 30 5.0 15.0 0.00 0.00 0.00 25 1003.6
20260504223043 78 26 7.0 14.0 0.00 0.00 0.00 24 1003.6
20260504222536 78 16 3.0 10.0 0.00 0.00 0.00 24 1003.6
20260504222036 77 283 4.0 10.0 0.00 0.00 0.00 25 1003.7
20260504221537 77 315 3.0 12.0 0.00 0.00 0.00 25 1003.8
20260504221035 78 12 4.0 13.0 0.00 0.00 0.00 24 1003.9
20260504220537 78 304 3.0 13.0 0.00 0.00 0.00 24 1004.0
20260504220036 77 284 5.0 13.0 0.00 0.00 0.00 25 1003.9
20260504215533 77 296 3.0 14.0 0.00 0.00 0.00 24 1004.0
20260504215031 77 301 4.0 14.0 0.00 0.00 0.00 25 1004.2
20260504214530 76 9 1.0 7.0 0.00 0.00 0.00 25 1004.1
20260504214030 77 318 1.0 12.0 0.00 0.00 0.00 24 1004.1
20260504213529 76 304 4.0 12.0 0.00 0.00 0.00 25 1004.1
20260504213050 77 313 6.0 14.0 0.00 0.00 0.00 25 1004.2
20260504212528 77 42 6.0 14.0 0.00 0.00 0.00 24 1004.2
20260504212027 77 248 3.0 10.0 0.00 0.00 0.00 24 1004.2
20260504211526 76 19 4.0 14.0 0.00 0.00 0.00 26 1004.2
20260504211025 76 290 6.0 14.0 0.00 0.00 0.00 26 1004.3
20260504210525 75 17 1.0 14.0 0.00 0.00 0.00 26 1004.3
20260504210026 75 41 4.0 14.0 0.00 0.00 0.00 26 1004.4
20260504205525 76 48 3.0 12.0 0.00 0.00 0.00 26 1004.5
20260504205023 76 74 4.0 13.0 0.00 0.00 0.00 26 1004.5
20260504204523 76 338 4.0 13.0 0.00 0.00 0.00 26 1004.5
20260504204022 75 355 3.0 13.0 0.00 0.00 0.00 27 1004.5
20260504203523 75 24 3.0 11.0 0.00 0.00 0.00 26 1004.6
20260504203023 75 11 4.0 13.0 0.00 0.00 0.00 25 1004.7
20260504202523 75 38 6.0 18.0 0.00 0.00 0.00 26 1004.7
20260504202022 76 46 4.0 18.0 0.00 0.00 0.00 26 1004.6
20260504201526 76 331 3.0 11.0 0.00 0.00 0.00 26 1004.7
20260504201025 77 355 3.0 10.0 0.00 0.00 0.00 26 1004.8
20260504200521 76 37 4.0 8.0 0.00 0.00 0.00 26 1004.9
20260504200021 77 312 3.0 10.0 0.00 0.00 0.00 26 1004.8
20260504195521 77 58 3.0 10.0 0.00 0.00 0.00 27 1004.8
20260504195019 77 5 1.0 9.0 0.00 0.00 0.00 27 1004.8
20260504194520 76 313 3.0 9.0 0.00 0.00 0.00 26 1004.9
20260504194018 76 310 4.0 10.0 0.00 0.00 0.00 27 1004.9
20260504193517 75 321 2.0 11.0 0.00 0.00 0.00 28 1005.0
20260504193015 74 70 3.0 11.0 0.00 0.00 0.00 27 1005.1
20260504192514 74 62 4.0 11.0 0.00 0.00 0.00 27 1005.1
20260504192013 75 5 4.0 11.0 0.00 0.00 0.00 27 1005.2
20260504191513 75 39 3.0 8.0 0.00 0.00 0.00 28 1005.2
20260504191016 74 5 2.0 16.0 0.00 0.00 0.00 27 1005.1
20260504190511 73 10 6.0 16.0 0.00 0.00 0.00 28 1005.3
20260504190010 73 55 5.0 12.0 0.00 0.00 0.00 28 1005.4
20260504185515 73 290 5.0 14.0 0.00 0.00 0.00 28 1005.4
20260504185016 74 38 5.0 14.0 0.00 0.00 0.00 27 1005.5
20260504184513 73 55 2.0 10.0 0.00 0.00 0.00 28 1005.5
20260504184008 73 19 4.0 11.0 0.00 0.00 0.00 28 1005.6
20260504183508 72 22 4.0 11.0 0.00 0.00 0.00 29 1005.7
20260504183007 72 42 3.0 9.0 0.00 0.00 0.00 29 1005.7
20260504182509 72 55 3.0 9.0 0.00 0.00 0.00 29 1005.8
20260504182006 72 331 4.0 8.0 0.00 0.00 0.00 29 1005.8
20260504181505 72 13 3.0 8.0 0.00 0.00 0.00 28 1005.8